Hourly Data Report for October 16, 2015

All times are specified in Local Standard Time (LST). Add 1 hour to adjust for Daylight Saving Time where and when it is observed.

HALL BEACH A
NUNAVUT

68°46'33.000" N
81°14'33.000" W
9.10 m
2402354
71293
YUX

Download Data

Hourly Data (October 2015)
Hourly Data Report for October 16, 2015
Temp Definition
°C
Dew Point Temp Definition
°C
Rel Hum Definition
%
Wind Dir Definition
10's deg

Wind Spd Definition
km/h
Visibility Definition
km
Stn Press Definition
kPa
Hmdx Definition


Wind Chill Definition


Weather Definition


TIME
00:00 Legend Double Dagger -5.9 -7.3 90 29 24 16.1 100.18   -13 LegendNANA
01:00 Legend Double Dagger -6.6 -8.4 87 30 22 16.1 100.25   -14 LegendNANA
02:00 Legend Double Dagger -7.6 -9.4 87 31 24 16.1 100.27   -16 LegendNANA
03:00 Legend Double Dagger -6.3 -8.4 85 34 21 16.1 100.32   -13 Snow
04:00 Legend Double Dagger -5.2 -7.3 85 33 28 16.1 100.36   -13 Snow
05:00 Legend Double Dagger -5.6 -7.4 87 31 26 16.1 100.39   -13 Snow
06:00 Legend Double Dagger -5.4 -7.9 83 32 32 16.1 100.41   -14 Snow
07:00 Legend Double Dagger -5.6 -8.3 82 33 37 16.1 100.42   -15 LegendNANA
08:00 Legend Double Dagger -5.2 -7.6 83 32 21 16.1 100.46   -12 Snow
09:00 Legend Double Dagger -5.5 -7.6 85 27 15 16.1 100.46   -11 Snow
10:00 Legend Double Dagger -5.2 -7.0 87 28 17 16.1 100.47   -11 Snow
11:00 Legend Double Dagger -4.9 -6.6 88 30 22 16.1 100.47   -12 Snow
12:00 Legend Double Dagger -4.4 -6.3 87 29 18 16.1 100.48   -10 Snow
13:00 Legend Double Dagger -4.4 -6.1 88 29 28 16.1 100.49   -12 Snow
14:00 Legend Double Dagger -4.2 -6.0 88 30 24 16.1 100.50   -11 Snow
15:00 Legend Double Dagger -5.1 -7.5 83 34 32 16.1 100.54   -13 Snow
16:00 Legend Double Dagger -5.2 -7.5 84 33 22 16.1 100.60   -12 LegendNANA
17:00 Legend Double Dagger -6.3 -8.2 86 30 21 12.9 100.65   -13 Snow
18:00 Legend Double Dagger -5.3 -6.8 89 29 22 16.1 100.63   -12 Snow
19:00 Legend Double Dagger -4.4 -5.7 91 30 17 16.1 100.62   -10 Snow
20:00 Legend Double Dagger -3.9 -5.5 89 31 28 16.1 100.60   -11 Snow
21:00 Legend Double Dagger -3.5 -5.1 89 32 34 16.1 100.58   -11 Snow
22:00 Legend Double Dagger -3.4 -4.7 91 31 32 14.5 100.58   -11 Snow
23:00 Legend Double Dagger -3.2 -4.5 91 33 37 14.5 100.58   -11 LegendNANA

Notes on Data Quality.

Legend

  • E = Estimated
  • M = Missing
  • NA = Not Available
  • ‡ = Partner data that is not subject to review by the National Climate Archives
Date modified: